PDA3501 UKBB-LFBO

Flight info

Callsign PDA3501
Flight time 2h 46m
Altitude 32000
Route KAFEL N164 LAPVA P27 PEVOT T708 DIBED/N0463F320 L984 USALO Z127 TUSIN DCT DITIS DCT TRAUN L856 TRA Z69 OLBEN N869 NINTU DCT REPSI DCT DITEV
Aircraft T154/M-SDFGRWY/S

Departure

Time 2026-04-30 08:28
Airport Boryspil International Airport (UKBB)

Arrival

Time 2026-04-30 11:15
Airport Toulouse-Blagnac Airport (LFBO)
Time Latitude Longitude Altitude Speed Heading
2026-04-30 08:28 50.42579 30.60142 12744 ft 298 kts 285°
2026-04-30 08:28 50.43033 30.56965 13532 ft 308 kts 285°
2026-04-30 08:28 50.43510 30.53628 14212 ft 322 kts 285°
2026-04-30 08:28 50.44015 30.50096 14713 ft 340 kts 285°
2026-04-30 08:29 50.44533 30.46460 15364 ft 351 kts 285°
2026-04-30 08:29 50.45056 30.42758 16381 ft 351 kts 284°
2026-04-30 08:29 50.45588 30.38990 17263 ft 355 kts 284°
2026-04-30 08:29 50.46116 30.35252 18125 ft 358 kts 284°
2026-04-30 08:30 50.46657 30.31399 18948 ft 363 kts 283°
2026-04-30 08:30 50.47195 30.27547 19818 ft 365 kts 283°
2026-04-30 08:30 50.47733 30.23704 20683 ft 368 kts 283°
2026-04-30 08:30 50.48283 30.19762 21503 ft 371 kts 283°
2026-04-30 08:31 50.48835 30.15799 22331 ft 374 kts 283°
2026-04-30 08:31 50.49390 30.11808 23118 ft 378 kts 283°
2026-04-30 08:31 50.49954 30.07742 23883 ft 382 kts 283°
2026-04-30 08:31 50.50523 30.03634 24609 ft 387 kts 283°
2026-04-30 08:32 50.51088 29.99534 25266 ft 393 kts 283°
2026-04-30 08:32 50.51863 29.93901 26172 ft 398 kts 283°
2026-04-30 08:32 50.52248 29.91091 26588 ft 401 kts 283°
2026-04-30 08:32 50.52839 29.86775 27200 ft 406 kts 283°
2026-04-30 08:33 50.53424 29.82481 27800 ft 410 kts 284°
2026-04-30 08:33 50.54026 29.78053 28342 ft 415 kts 284°
2026-04-30 08:33 50.54626 29.73630 28794 ft 421 kts 284°
2026-04-30 08:33 50.55236 29.69121 29264 ft 425 kts 284°
2026-04-30 08:34 50.55848 29.64572 29701 ft 429 kts 284°
2026-04-30 08:34 50.56466 29.59978 30124 ft 433 kts 285°
2026-04-30 08:34 50.57083 29.55362 30539 ft 437 kts 285°
2026-04-30 08:34 50.57715 29.50631 30882 ft 442 kts 285°
2026-04-30 08:35 50.58337 29.45953 31182 ft 446 kts 285°
2026-04-30 08:35 50.58971 29.41165 31491 ft 449 kts 285°
2026-04-30 08:35 50.59610 29.36323 31756 ft 452 kts 285°
2026-04-30 08:35 50.60213 29.31515 31985 ft 457 kts 280°
2026-04-30 08:36 50.60178 29.26453 32140 ft 469 kts 262°
2026-04-30 08:36 50.59228 29.21601 32428 ft 474 kts 250°
2026-04-30 08:36 50.57908 29.16818 32708 ft 476 kts 250°
2026-04-30 08:36 50.56645 29.12048 32895 ft 478 kts 251°
2026-04-30 08:37 50.55394 29.07160 33141 ft 479 kts 251°
2026-04-30 08:37 50.54168 29.02361 33319 ft 481 kts 251°
2026-04-30 08:37 50.52919 28.97485 33522 ft 482 kts 251°
2026-04-30 08:37 50.51671 28.92622 33739 ft 484 kts 251°
2026-04-30 08:38 50.50415 28.87735 33931 ft 486 kts 251°
2026-04-30 08:38 50.49148 28.82817 34127 ft 487 kts 251°
2026-04-30 08:38 50.47875 28.77887 34313 ft 485 kts 251°
2026-04-30 08:39 50.45416 28.68101 34388 ft 485 kts 256°
2026-04-30 08:39 50.43845 28.57917 34361 ft 481 kts 260°
2026-04-30 08:40 50.42278 28.47761 34340 ft 481 kts 259°
2026-04-30 08:40 50.40683 28.37645 34336 ft 481 kts 259°
2026-04-30 08:41 50.39067 28.27441 34301 ft 482 kts 259°
2026-04-30 08:41 50.37449 28.17301 34316 ft 483 kts 259°
2026-04-30 08:42 50.35822 28.07180 34330 ft 482 kts 259°
2026-04-30 08:42 50.34182 27.97043 34332 ft 483 kts 259°
2026-04-30 08:43 50.32521 27.86838 34343 ft 484 kts 259°
2026-04-30 08:43 50.30842 27.76695 34351 ft 484 kts 258°
2026-04-30 08:44 50.29102 27.66623 34355 ft 483 kts 258°
2026-04-30 08:44 50.27356 27.56511 34361 ft 484 kts 258°
2026-04-30 08:45 50.25605 27.46421 34358 ft 483 kts 258°
2026-04-30 08:45 50.23845 27.36330 34364 ft 484 kts 258°
2026-04-30 08:46 50.22065 27.26169 34331 ft 485 kts 258°
2026-04-30 08:46 50.20278 27.16028 34351 ft 486 kts 258°
2026-04-30 08:47 50.18490 27.05932 34359 ft 485 kts 258°
2026-04-30 08:47 50.17666 26.95646 34368 ft 480 kts 269°
2026-04-30 08:48 50.17125 26.85250 34371 ft 482 kts 269°
2026-04-30 08:48 50.16526 26.74873 34374 ft 482 kts 268°
2026-04-30 08:49 50.15918 26.64519 34387 ft 481 kts 269°
2026-04-30 08:49 50.15297 26.54104 34398 ft 482 kts 269°
2026-04-30 08:50 50.14673 26.43807 34399 ft 481 kts 269°
2026-04-30 08:50 50.14033 26.33407 34389 ft 483 kts 268°
2026-04-30 08:51 50.13384 26.22993 34370 ft 485 kts 268°
2026-04-30 08:51 50.12724 26.12578 34389 ft 486 kts 268°
2026-04-30 08:52 50.12053 26.02137 34394 ft 486 kts 268°
2026-04-30 08:52 50.11369 25.91728 34385 ft 483 kts 268°
2026-04-30 08:53 50.10678 25.81365 34376 ft 481 kts 268°
2026-04-30 08:53 50.09982 25.71039 34388 ft 482 kts 268°
2026-04-30 08:54 50.09275 25.60702 34391 ft 483 kts 268°
2026-04-30 08:54 50.08562 25.50399 34388 ft 484 kts 268°
2026-04-30 08:55 50.07830 25.39974 34399 ft 484 kts 268°
2026-04-30 08:55 50.07093 25.29612 34364 ft 486 kts 267°
2026-04-30 08:56 50.06343 25.19193 34376 ft 487 kts 267°
2026-04-30 08:56 50.05586 25.08816 34397 ft 486 kts 267°
2026-04-30 08:57 50.04819 24.98426 34406 ft 486 kts 267°
2026-04-30 08:57 50.04038 24.87981 34414 ft 487 kts 267°
2026-04-30 08:58 50.03252 24.77603 34413 ft 488 kts 267°
2026-04-30 08:58 50.02450 24.67127 34419 ft 488 kts 267°
2026-04-30 08:59 50.01639 24.56673 34432 ft 488 kts 268°
2026-04-30 08:59 50.00825 24.46302 34429 ft 487 kts 268°
2026-04-30 09:00 49.99999 24.35889 34424 ft 486 kts 268°
2026-04-30 09:00 49.99163 24.25458 34400 ft 489 kts 266°
2026-04-30 09:01 49.98317 24.15051 34419 ft 489 kts 266°
2026-04-30 09:01 49.97454 24.04553 34419 ft 490 kts 266°
2026-04-30 09:02 49.96149 23.88882 34424 ft 490 kts 266°
2026-04-30 09:02 49.95267 23.78443 34430 ft 489 kts 266°
2026-04-30 09:03 49.94373 23.67979 34434 ft 488 kts 266°
2026-04-30 09:03 49.93474 23.57562 34436 ft 488 kts 266°
2026-04-30 09:04 49.92571 23.47222 34456 ft 488 kts 266°
2026-04-30 09:04 49.91654 23.36823 34450 ft 487 kts 266°
2026-04-30 09:05 49.90729 23.26421 34418 ft 489 kts 266°
2026-04-30 09:05 49.89789 23.16003 34444 ft 489 kts 265°
2026-04-30 09:06 49.88850 23.05557 34441 ft 487 kts 270°
2026-04-30 09:06 49.89100 22.95209 34460 ft 483 kts 278°
2026-04-30 09:07 49.89431 22.84900 34457 ft 483 kts 277°
2026-04-30 09:07 49.89722 22.74547 34455 ft 482 kts 277°
2026-04-30 09:08 49.90005 22.64136 34451 ft 483 kts 277°
2026-04-30 09:08 49.90277 22.53758 34449 ft 485 kts 277°
2026-04-30 09:09 49.90582 22.41618 34450 ft 484 kts 277°
2026-04-30 09:09 49.90791 22.33001 34440 ft 484 kts 276°
2026-04-30 09:10 49.91035 22.22539 34424 ft 485 kts 276°
2026-04-30 09:10 49.91267 22.12185 34448 ft 484 kts 276°
2026-04-30 09:11 49.91494 22.01758 34459 ft 485 kts 276°
2026-04-30 09:11 49.91711 21.91309 34458 ft 487 kts 276°
2026-04-30 09:12 49.91919 21.80863 34465 ft 486 kts 276°
2026-04-30 09:12 49.92116 21.70434 34458 ft 486 kts 276°
2026-04-30 09:13 49.92302 21.60033 34460 ft 485 kts 276°
2026-04-30 09:13 49.92477 21.49610 34459 ft 485 kts 276°
2026-04-30 09:14 49.92642 21.39202 34457 ft 484 kts 276°
2026-04-30 09:14 49.92809 21.28823 34424 ft 487 kts 275°
2026-04-30 09:15 49.92974 21.18327 34439 ft 487 kts 275°
2026-04-30 09:15 49.93113 21.07854 34453 ft 486 kts 275°
2026-04-30 09:16 49.93232 20.97449 34457 ft 486 kts 275°
2026-04-30 09:16 49.93345 20.86982 34463 ft 486 kts 275°
2026-04-30 09:17 49.93450 20.76529 34473 ft 487 kts 275°
2026-04-30 09:17 49.93547 20.66105 34476 ft 488 kts 275°
2026-04-30 09:18 49.93646 20.55591 34474 ft 487 kts 275°
2026-04-30 09:18 49.93733 20.45140 34481 ft 486 kts 275°
2026-04-30 09:19 49.93810 20.34645 34472 ft 487 kts 274°
2026-04-30 09:19 49.93876 20.24164 34445 ft 489 kts 274°
2026-04-30 09:20 49.93934 20.13605 34467 ft 491 kts 275°
2026-04-30 09:20 49.93979 20.03076 34474 ft 489 kts 275°
2026-04-30 09:21 49.94009 19.92566 34478 ft 490 kts 275°
2026-04-30 09:21 49.94037 19.82093 34488 ft 491 kts 275°
2026-04-30 09:22 49.94067 19.71515 34488 ft 492 kts 275°
2026-04-30 09:22 49.94085 19.60875 34487 ft 493 kts 275°
2026-04-30 09:23 49.94091 19.50324 34483 ft 493 kts 275°
2026-04-30 09:23 49.94088 19.39695 34485 ft 493 kts 275°
2026-04-30 09:24 49.94076 19.29036 34443 ft 496 kts 274°
2026-04-30 09:24 49.94052 19.18350 34458 ft 499 kts 274°
2026-04-30 09:25 49.93973 19.07627 34457 ft 501 kts 269°
2026-04-30 09:25 49.93303 19.02348 34436 ft 507 kts 257°
2026-04-30 09:25 49.92287 18.97133 34460 ft 511 kts 257°
2026-04-30 09:26 49.90279 18.86518 34481 ft 512 kts 258°
2026-04-30 09:26 49.88296 18.75992 34490 ft 512 kts 258°
2026-04-30 09:27 49.86297 18.65457 34491 ft 512 kts 258°
2026-04-30 09:27 49.84212 18.54943 34489 ft 514 kts 253°
2026-04-30 09:28 49.81533 18.44658 34498 ft 516 kts 252°
2026-04-30 09:28 49.78867 18.34338 34503 ft 518 kts 251°
2026-04-30 09:29 49.76220 18.24058 34467 ft 517 kts 251°
2026-04-30 09:29 49.73553 18.13753 34498 ft 518 kts 251°
2026-04-30 09:30 49.70863 18.03413 34501 ft 519 kts 251°
2026-04-30 09:30 49.68176 17.93135 34500 ft 519 kts 252°
2026-04-30 09:31 49.65464 17.82805 34492 ft 521 kts 252°
2026-04-30 09:31 49.62764 17.72569 34494 ft 521 kts 251°
2026-04-30 09:32 49.60030 17.62249 34484 ft 520 kts 252°
2026-04-30 09:32 49.57301 17.51993 34487 ft 520 kts 252°
2026-04-30 09:33 49.54558 17.41728 34497 ft 521 kts 252°
2026-04-30 09:33 49.51797 17.31443 34458 ft 521 kts 251°
2026-04-30 09:34 49.49040 17.21193 34462 ft 523 kts 251°
2026-04-30 09:34 49.46246 17.10869 34473 ft 524 kts 251°
2026-04-30 09:35 49.43460 17.00630 34487 ft 525 kts 251°
2026-04-30 09:35 49.40660 16.90383 34488 ft 524 kts 251°
2026-04-30 09:36 49.37838 16.80103 34495 ft 523 kts 251°
2026-04-30 09:36 49.35027 16.69906 34492 ft 522 kts 251°
2026-04-30 09:37 49.31713 16.57936 34518 ft 523 kts 251°
2026-04-30 09:37 49.29350 16.49442 34501 ft 525 kts 251°
2026-04-30 09:38 49.26494 16.39216 34496 ft 525 kts 251°
2026-04-30 09:38 49.23630 16.28990 34466 ft 528 kts 251°
2026-04-30 09:39 49.20737 16.18701 34483 ft 527 kts 250°
2026-04-30 09:39 49.17845 16.08475 34502 ft 527 kts 251°
2026-04-30 09:40 49.14931 15.98213 34524 ft 529 kts 251°
2026-04-30 09:40 49.12003 15.87955 34516 ft 529 kts 250°
2026-04-30 09:41 49.09060 15.77683 34515 ft 531 kts 251°
2026-04-30 09:41 49.06112 15.67438 34498 ft 531 kts 250°
2026-04-30 09:42 49.03146 15.57179 34497 ft 532 kts 250°
2026-04-30 09:42 49.00189 15.46993 34499 ft 529 kts 250°
2026-04-30 09:43 48.97190 15.36700 34497 ft 531 kts 251°
2026-04-30 09:43 48.94214 15.26509 34463 ft 532 kts 250°
2026-04-30 09:44 48.91200 15.16241 34429 ft 534 kts 250°
2026-04-30 09:44 48.87961 15.06100 34436 ft 535 kts 245°
2026-04-30 09:45 48.84448 14.96265 34457 ft 535 kts 245°
2026-04-30 09:45 48.80952 14.86313 34461 ft 535 kts 245°
2026-04-30 09:46 48.77455 14.76380 34468 ft 535 kts 245°
2026-04-30 09:46 48.73962 14.66487 34468 ft 535 kts 245°
2026-04-30 09:47 48.69875 14.54964 34466 ft 533 kts 246°
2026-04-30 09:47 48.66963 14.46779 34459 ft 535 kts 245°
2026-04-30 09:48 48.63457 14.36968 34465 ft 532 kts 245°
2026-04-30 09:48 48.59930 14.27103 34430 ft 534 kts 245°
2026-04-30 09:49 48.56389 14.17248 34438 ft 534 kts 244°
2026-04-30 09:49 48.52865 14.07492 34454 ft 535 kts 245°
2026-04-30 09:50 48.49295 13.97650 34470 ft 535 kts 245°
2026-04-30 09:50 48.45746 13.87894 34471 ft 533 kts 244°
2026-04-30 09:51 48.42173 13.78108 34482 ft 532 kts 244°
2026-04-30 09:51 48.38615 13.68405 34478 ft 532 kts 244°
2026-04-30 09:52 48.35033 13.58673 34480 ft 531 kts 244°
2026-04-30 09:52 48.31481 13.49057 34475 ft 532 kts 244°
2026-04-30 09:53 48.27903 13.39409 34472 ft 529 kts 244°
2026-04-30 09:53 48.24305 13.29722 34442 ft 532 kts 243°
2026-04-30 09:54 48.20713 13.20078 34447 ft 530 kts 243°
2026-04-30 09:54 48.17106 13.10449 34468 ft 531 kts 243°
2026-04-30 09:55 48.13514 13.00900 34460 ft 530 kts 243°
2026-04-30 09:55 48.09900 12.91327 34457 ft 529 kts 243°
2026-04-30 09:56 48.06267 12.81739 34462 ft 529 kts 243°
2026-04-30 09:56 48.02647 12.72219 34453 ft 530 kts 243°
2026-04-30 09:57 47.99009 12.62685 34454 ft 529 kts 243°
2026-04-30 09:57 47.97492 12.57695 34422 ft 522 kts 259°
2026-04-30 09:57 47.96830 12.52510 34467 ft 513 kts 269°
2026-04-30 09:58 47.95953 12.41915 34476 ft 517 kts 268°
2026-04-30 09:58 47.94964 12.31356 34434 ft 516 kts 266°
2026-04-30 09:59 47.92947 12.10171 34435 ft 521 kts 266°
2026-04-30 10:00 47.91383 11.94209 34452 ft 518 kts 266°
2026-04-30 10:01 47.89817 11.78438 34442 ft 515 kts 266°
2026-04-30 10:02 47.88208 11.62670 34442 ft 517 kts 266°
2026-04-30 10:02 47.87143 11.52142 34432 ft 513 kts 266°
2026-04-30 10:03 47.86082 11.41725 34441 ft 513 kts 266°
2026-04-30 10:03 47.85004 11.31228 34398 ft 513 kts 265°
2026-04-30 10:04 47.83924 11.20814 34406 ft 513 kts 265°
2026-04-30 10:04 47.82824 11.10302 34427 ft 514 kts 265°
2026-04-30 10:05 47.81717 10.99899 34434 ft 511 kts 265°
2026-04-30 10:05 47.80603 10.89544 34425 ft 510 kts 265°
2026-04-30 10:06 47.79477 10.79164 34435 ft 511 kts 265°
2026-04-30 10:06 47.78342 10.68785 34437 ft 509 kts 265°
2026-04-30 10:07 47.77200 10.58437 34427 ft 508 kts 265°
2026-04-30 10:07 47.76055 10.48139 34444 ft 508 kts 265°
2026-04-30 10:08 47.74900 10.37852 34426 ft 505 kts 265°
2026-04-30 10:08 47.74338 10.27556 34401 ft 501 kts 274°
2026-04-30 10:09 47.74176 10.17186 34432 ft 502 kts 272°
2026-04-30 10:09 47.73937 10.06869 34421 ft 500 kts 272°
2026-04-30 10:10 47.73688 9.96594 34421 ft 499 kts 272°
2026-04-30 10:10 47.73431 9.86333 34433 ft 500 kts 272°
2026-04-30 10:11 47.73164 9.76029 34429 ft 500 kts 272°
2026-04-30 10:11 47.72887 9.65730 34423 ft 500 kts 272°
2026-04-30 10:12 47.72598 9.55438 34418 ft 500 kts 271°
2026-04-30 10:12 47.72300 9.45223 34431 ft 499 kts 272°
2026-04-30 10:13 47.72010 9.34910 34427 ft 499 kts 271°
2026-04-30 10:13 47.71733 9.24606 34396 ft 501 kts 271°
2026-04-30 10:14 47.71426 9.14349 34406 ft 500 kts 270°
2026-04-30 10:14 47.70924 8.98963 34420 ft 499 kts 270°
2026-04-30 10:15 47.70577 8.88668 34415 ft 499 kts 270°
2026-04-30 10:15 47.70224 8.78432 34417 ft 500 kts 270°
2026-04-30 10:16 47.69859 8.68160 34420 ft 498 kts 270°
2026-04-30 10:17 47.69297 8.52788 34416 ft 499 kts 270°
2026-04-30 10:17 47.68242 8.42652 34377 ft 505 kts 249°
2026-04-30 10:17 47.66522 8.38100 34412 ft 506 kts 235°
2026-04-30 10:18 47.62356 8.29648 34394 ft 508 kts 235°
2026-04-30 10:19 47.56293 8.16851 34392 ft 507 kts 235°
2026-04-30 10:19 47.52269 8.08384 34393 ft 505 kts 235°
2026-04-30 10:20 47.48241 7.99934 34392 ft 504 kts 235°
2026-04-30 10:20 47.42188 7.87285 34389 ft 503 kts 235°
2026-04-30 10:21 47.38148 7.78876 34386 ft 504 kts 235°
2026-04-30 10:21 47.34089 7.70449 34385 ft 502 kts 235°
2026-04-30 10:22 47.30046 7.62104 34384 ft 501 kts 234°
2026-04-30 10:22 47.25744 7.54098 34389 ft 499 kts 231°
2026-04-30 10:23 47.21429 7.46140 34389 ft 498 kts 232°
2026-04-30 10:23 47.17144 7.38210 34399 ft 497 kts 232°
2026-04-30 10:24 47.12885 7.30331 34362 ft 496 kts 231°
2026-04-30 10:24 47.08600 7.22409 34362 ft 496 kts 231°
2026-04-30 10:25 47.04337 7.14575 34367 ft 495 kts 231°
2026-04-30 10:25 47.00039 7.06702 34367 ft 493 kts 231°
2026-04-30 10:26 46.95789 6.98942 34366 ft 493 kts 231°
2026-04-30 10:26 46.90772 6.89808 34367 ft 492 kts 231°
2026-04-30 10:27 46.87210 6.83376 34327 ft 492 kts 231°
2026-04-30 10:27 46.82898 6.75611 34339 ft 493 kts 231°
2026-04-30 10:28 46.78638 6.67928 34343 ft 490 kts 232°
2026-04-30 10:28 46.74337 6.60187 34344 ft 489 kts 232°
2026-04-30 10:29 46.69967 6.52638 34344 ft 489 kts 229°
2026-04-30 10:29 46.65459 6.45298 34339 ft 488 kts 229°
2026-04-30 10:30 46.60951 6.37896 34327 ft 488 kts 229°
2026-04-30 10:30 46.56490 6.30571 34307 ft 487 kts 229°
2026-04-30 10:31 46.52004 6.23211 34315 ft 487 kts 229°
2026-04-30 10:31 46.47536 6.15924 34314 ft 485 kts 229°
2026-04-30 10:32 46.43072 6.08664 34320 ft 484 kts 230°
2026-04-30 10:32 46.38604 6.01418 34317 ft 482 kts 230°
2026-04-30 10:33 46.34177 5.94257 34319 ft 476 kts 230°
2026-04-30 10:33 46.29813 5.87096 34328 ft 473 kts 234°
2026-04-30 10:34 46.26133 5.79286 34322 ft 472 kts 238°
2026-04-30 10:34 46.22463 5.71486 34323 ft 469 kts 238°
2026-04-30 10:35 46.18776 5.63734 34319 ft 468 kts 237°
2026-04-30 10:35 46.15093 5.56017 34322 ft 468 kts 237°
2026-04-30 10:36 46.11417 5.48335 34324 ft 466 kts 237°
2026-04-30 10:36 46.07760 5.40712 34325 ft 465 kts 237°
2026-04-30 10:37 46.04072 5.33044 34323 ft 466 kts 236°
2026-04-30 10:37 45.99782 5.24118 34123 ft 465 kts 236°
2026-04-30 10:38 45.96725 5.17795 34148 ft 465 kts 236°
2026-04-30 10:38 45.93045 5.10207 34154 ft 465 kts 236°
2026-04-30 10:39 45.89357 5.02623 34136 ft 465 kts 236°
2026-04-30 10:39 45.85636 4.95063 34133 ft 465 kts 236°
2026-04-30 10:40 45.81926 4.87493 34143 ft 465 kts 236°
2026-04-30 10:40 45.78215 4.79925 34148 ft 465 kts 236°
2026-04-30 10:41 45.74516 4.72401 34148 ft 464 kts 236°
2026-04-30 10:41 45.70814 4.64889 34149 ft 463 kts 236°
2026-04-30 10:42 45.67096 4.57365 34146 ft 462 kts 235°
2026-04-30 10:42 45.63420 4.49946 34152 ft 461 kts 235°
2026-04-30 10:43 45.59719 4.42498 34153 ft 462 kts 235°
2026-04-30 10:43 45.55993 4.35017 34157 ft 464 kts 235°
2026-04-30 10:44 45.52216 4.27540 34131 ft 464 kts 230°
2026-04-30 10:44 45.47604 4.21130 34154 ft 465 kts 222°
2026-04-30 10:45 45.42913 4.14843 34165 ft 464 kts 223°
2026-04-30 10:45 45.38231 4.08535 34169 ft 465 kts 223°
2026-04-30 10:46 45.33555 4.02246 34173 ft 464 kts 223°
2026-04-30 10:46 45.28873 3.95967 34180 ft 464 kts 223°
2026-04-30 10:47 45.24220 3.89736 34177 ft 464 kts 223°
2026-04-30 10:47 45.19536 3.83480 34186 ft 464 kts 223°
2026-04-30 10:48 45.14842 3.77225 34191 ft 464 kts 223°
2026-04-30 10:48 45.10149 3.70986 34192 ft 463 kts 223°
2026-04-30 10:49 45.05470 3.64783 34190 ft 462 kts 223°
2026-04-30 10:49 45.00796 3.58599 34189 ft 462 kts 223°
2026-04-30 10:50 44.96104 3.52405 34194 ft 461 kts 223°
2026-04-30 10:50 44.91438 3.46260 34182 ft 460 kts 223°
2026-04-30 10:51 44.86758 3.40149 34137 ft 461 kts 222°
2026-04-30 10:51 44.82062 3.34016 34139 ft 461 kts 222°
2026-04-30 10:52 44.77364 3.27841 34151 ft 462 kts 221°
2026-04-30 10:52 44.72704 3.21748 34150 ft 460 kts 221°
2026-04-30 10:53 44.68005 3.15633 34150 ft 459 kts 221°
2026-04-30 10:53 44.63319 3.09551 34145 ft 461 kts 221°
2026-04-30 10:54 44.58684 3.03544 33849 ft 448 kts 221°
2026-04-30 10:54 44.56406 3.00599 33294 ft 447 kts 221°
2026-04-30 10:54 44.54142 2.97676 32877 ft 444 kts 222°
2026-04-30 10:55 44.51879 2.94752 32481 ft 440 kts 221°
2026-04-30 10:55 44.49644 2.91873 32005 ft 438 kts 222°
2026-04-30 10:55 44.47682 2.88606 31481 ft 439 kts 237°
2026-04-30 10:55 44.46239 2.84914 31083 ft 435 kts 241°
2026-04-30 10:56 44.44832 2.81184 30600 ft 432 kts 240°
2026-04-30 10:56 44.43413 2.77535 30073 ft 430 kts 240°
2026-04-30 10:56 44.41993 2.73921 29638 ft 425 kts 240°
2026-04-30 10:56 44.40558 2.70282 29085 ft 423 kts 240°
2026-04-30 10:57 44.39169 2.66746 28601 ft 419 kts 240°
2026-04-30 10:57 44.37764 2.63168 28075 ft 416 kts 240°
2026-04-30 10:57 44.36399 2.59699 27539 ft 413 kts 240°
2026-04-30 10:57 44.35016 2.56195 27026 ft 409 kts 240°
2026-04-30 10:58 44.33654 2.52747 26480 ft 406 kts 240°
2026-04-30 10:58 44.32296 2.49320 25939 ft 402 kts 240°
2026-04-30 10:58 44.30945 2.45908 25382 ft 399 kts 240°
2026-04-30 10:58 44.29632 2.42596 24841 ft 395 kts 240°
2026-04-30 10:59 44.28303 2.39248 24264 ft 391 kts 240°
2026-04-30 10:59 44.26999 2.35964 23677 ft 388 kts 240°
2026-04-30 10:59 44.25686 2.32659 23046 ft 386 kts 240°
2026-04-30 10:59 44.24408 2.29432 22455 ft 382 kts 240°
2026-04-30 11:00 44.23134 2.26226 21875 ft 379 kts 240°
2026-04-30 11:00 44.21853 2.23016 21276 ft 375 kts 239°
2026-04-30 11:00 44.20610 2.19909 20663 ft 372 kts 239°
2026-04-30 11:00 44.19355 2.16772 20032 ft 368 kts 239°
2026-04-30 11:01 44.18114 2.13668 19450 ft 364 kts 239°
2026-04-30 11:01 44.16896 2.10631 18804 ft 361 kts 239°
2026-04-30 11:01 44.15675 2.07592 18169 ft 358 kts 239°
2026-04-30 11:01 44.14469 2.04592 17556 ft 354 kts 239°
2026-04-30 11:02 44.13276 2.01629 16970 ft 353 kts 239°
2026-04-30 11:02 44.12089 1.98685 16457 ft 349 kts 239°
2026-04-30 11:02 44.10905 1.95748 15915 ft 347 kts 239°
2026-04-30 11:02 44.09341 1.91873 15197 ft 344 kts 239°
2026-04-30 11:03 44.08572 1.89968 14869 ft 342 kts 239°
2026-04-30 11:03 44.07415 1.87105 14346 ft 340 kts 239°
2026-04-30 11:03 44.06261 1.84259 13831 ft 338 kts 239°
2026-04-30 11:04 44.03965 1.78601 12777 ft 334 kts 239°
2026-04-30 11:04 44.02823 1.75814 12245 ft 333 kts 239°
2026-04-30 11:04 44.01696 1.73053 11770 ft 330 kts 239°
2026-04-30 11:04 44.00600 1.70335 11483 ft 316 kts 239°
2026-04-30 11:05 43.99556 1.67756 11237 ft 302 kts 239°
2026-04-30 11:05 43.98544 1.65268 10930 ft 292 kts 239°
2026-04-30 11:05 43.97555 1.62841 10592 ft 284 kts 239°
2026-04-30 11:05 43.96601 1.60508 10276 ft 276 kts 239°
2026-04-30 11:06 43.95667 1.58218 9944 ft 270 kts 239°
2026-04-30 11:06 43.94741 1.55955 9575 ft 266 kts 239°
2026-04-30 11:06 43.93824 1.53719 9120 ft 267 kts 239°
2026-04-30 11:06 43.92920 1.51481 8690 ft 266 kts 240°
2026-04-30 11:07 43.92025 1.49267 8264 ft 266 kts 240°
2026-04-30 11:07 43.91116 1.47042 7806 ft 266 kts 240°
2026-04-30 11:07 43.90196 1.44806 7334 ft 267 kts 240°
2026-04-30 11:07 43.89286 1.42613 6879 ft 267 kts 240°
2026-04-30 11:08 43.88346 1.40383 6420 ft 267 kts 240°
2026-04-30 11:08 43.87119 1.37438 5878 ft 265 kts 242°
2026-04-30 11:08 43.86512 1.35975 5634 ft 263 kts 241°
2026-04-30 11:08 43.85604 1.33770 5286 ft 260 kts 240°
2026-04-30 11:09 43.84730 1.31622 4986 ft 254 kts 240°
2026-04-30 11:09 43.83891 1.29505 4793 ft 245 kts 241°
2026-04-30 11:09 43.83104 1.27492 4700 ft 227 kts 240°
2026-04-30 11:09 43.82101 1.26001 4416 ft 207 kts 207°
2026-04-30 11:10 43.80785 1.25521 4180 ft 193 kts 182°
2026-04-30 11:10 43.79445 1.25366 3956 ft 192 kts 181°
2026-04-30 11:10 43.78118 1.25283 3700 ft 193 kts 177°
2026-04-30 11:10 43.76771 1.25257 3396 ft 193 kts 177°
2026-04-30 11:11 43.75456 1.25231 3058 ft 188 kts 177°
2026-04-30 11:11 43.74177 1.25317 2711 ft 176 kts 164°
2026-04-30 11:11 43.73152 1.25896 2590 ft 148 kts 150°
2026-04-30 11:11 43.72248 1.26554 2394 ft 148 kts 148°
2026-04-30 11:12 43.71376 1.27325 2211 ft 147 kts 143°
2026-04-30 11:12 43.70569 1.28131 1977 ft 138 kts 140°
2026-04-30 11:12 43.69827 1.28915 1851 ft 133 kts 139°
2026-04-30 11:12 43.69100 1.29692 1674 ft 132 kts 139°
2026-04-30 11:13 43.68364 1.30475 1479 ft 133 kts 141°
2026-04-30 11:13 43.67631 1.31244 1302 ft 132 kts 142°
2026-04-30 11:13 43.66897 1.32000 1124 ft 132 kts 140°
2026-04-30 11:13 43.66172 1.32763 955 ft 131 kts 142°
2026-04-30 11:14 43.65451 1.33520 783 ft 130 kts 142°
2026-04-30 11:14 43.64715 1.34273 611 ft 130 kts 141°
2026-04-30 11:14 43.63996 1.35025 502 ft 127 kts 140°
2026-04-30 11:14 43.63401 1.35649 504 ft 78 kts 143°
2026-04-30 11:15 43.63108 1.35956 508 ft 43 kts 144°
2026-04-30 11:15 43.62888 1.36178 508 ft 37 kts 143°
2026-04-30 11:15 43.62678 1.36399 501 ft 39 kts 143°
2026-04-30 11:15 43.62485 1.36613 499 ft 29 kts 128°
2026-04-30 11:16 43.62456 1.36821 498 ft 7 kts 83°
2026-04-30 11:16 43.62463 1.36901 498 ft 9 kts 82°
2026-04-30 11:16 43.62472 1.37003 498 ft 11 kts 83°
2026-04-30 11:16 43.62483 1.37125 498 ft 13 kts 83°
2026-04-30 11:17 43.62506 1.37237 498 ft 5 kts 53°
2026-04-30 11:17 43.62507 1.37238 498 ft 0 kts 53°
2026-04-30 11:18 43.62527 1.37279 498 ft 6 kts 69°
2026-04-30 11:18 43.62515 1.37344 499 ft 8 kts 138°
2026-04-30 11:19 43.62465 1.37397 500 ft 9 kts 139°
2026-04-30 11:19 43.62465 1.37470 501 ft 8 kts 49°
2026-04-30 11:19 43.62483 1.37499 502 ft 2 kts 52°
2026-04-30 11:19 43.62482 1.37519 502 ft 2 kts 144°
2026-04-30 11:20 43.62455 1.37532 502 ft 5 kts 160°
2026-04-30 11:20 43.62439 1.37541 502 ft 0 kts 159°